Home > Weather > Alappuzha > Past weeks

Flag for India Weather for the Past 2 Weeks in Alappuzha, Kerala, India

Now
90 °F

Scattered clouds.


Feels Like: 103 °F
Forecast: 82 / 90 °F
Wind: 6 mph from West

Location: Thiruvananthapuram

Current Time: Apr 29, 2016 at 9:58:17 AM

Latest Report: Apr 29, 2016 at 9:00 AM


Visibility: 2 mi

Pressure: 29.83 "Hg

Humidity: 67%

Dew Point: 77 °F

Location of AlappuzhaLocation

Historic Weather in Alappuzha — Graph

°F

Alappuzha Temperature Yesterday

Maximum temperature yesterday: 91 °F (at 11:00 AM)
Minimum temperature yesterday: 84 °F (at 6:00 AM)
Average temperature yesterday: 89 °F

High & Low Weather Summary for the Past Weeks

 TemperatureHumidityPressure
High95 °F (Apr 14, 11:00 AM)94% (Apr 17, 7:30 PM)29.89 "Hg (Apr 17, 7:30 PM)
Low82 °F (Apr 18, 6:30 AM)56% (Apr 14, 1:00 PM)29.62 "Hg (Apr 24, 3:30 PM)
Average88 °F75%29.76 "Hg
* Reported Apr 14 7:30 AM — Apr 29 8:00 AM, Alappuzha, Weather by CustomWeather, © 2016

Note: Actual official high and low records may vary slightly from our data, if they occured in-between our weather recording intervals... More about our weather records

Advertising

Alappuzha Weather History for the Previous 24 Hours

Scroll right to see more
 ConditionsComfort  
Time TempWeatherWind HumidityBarometerVisibility
8:00 AM
Fri, Apr 29
88 °FHaze.3 mph75%29.80 "Hg2 mi
7:00 AM84 °FHaze.3 mph79%29.80 "Hg2 mi
6:30 AM84 °FHaze.5 mph79%29.77 "Hg2 mi
6:00 AM84 °FHaze.3 mph79%29.77 "Hg2 mi
5:30 AM84 °FHaze.3 mph79%29.77 "Hg2 mi
4:30 AM84 °FHaze.3 mph84%29.74 "Hg2 mi
4:00 AM84 °FHaze.3 mph84%29.74 "Hg2 mi
3:30 AM86 °FPassing clouds.3 mph79%29.74 "Hg2 mi
3:00 AM86 °FPassing clouds.3 mph79%29.74 "Hg2 mi
2:30 AM86 °FHaze.3 mph79%29.74 "Hg2 mi
1:30 AM86 °FHaze.3 mph79%29.77 "Hg2 mi
12:30 AM86 °FHaze.No wind79%29.77 "Hg2 mi
10:30 PM
Thu, Apr 28
86 °FHaze.No wind79%29.80 "Hg2 mi
10:00 PM88 °FHaze.No wind75%29.80 "Hg2 mi
9:30 PM88 °FHaze.No wind75%29.80 "Hg2 mi
9:00 PM88 °FHaze.No wind75%29.80 "Hg2 mi
8:30 PM88 °FHaze.No wind75%29.80 "Hg2 mi
8:00 PM88 °FPassing clouds.5 mph75%29.77 "Hg2 mi
7:30 PM90 °FPassing clouds.5 mph71%29.77 "Hg2 mi
7:00 PM90 °FScattered clouds.3 mph71%29.74 "Hg3 mi
6:30 PM90 °FScattered clouds.5 mph71%29.74 "Hg4 mi
6:00 PM90 °FScattered clouds.3 mph71%29.74 "Hg4 mi
5:00 PM91 °FScattered clouds.6 mph63%29.71 "Hg4 mi
4:30 PM91 °FScattered clouds.6 mph67%29.71 "Hg4 mi
4:00 PM91 °FScattered clouds.7 mph67%29.71 "Hg4 mi
3:30 PM91 °FScattered clouds.8 mph67%29.71 "Hg4 mi
3:00 PM91 °FPassing clouds.8 mph67%29.71 "Hg4 mi
2:30 PM91 °FScattered clouds.10 mph67%29.71 "Hg4 mi
1:30 PM91 °FScattered clouds.9 mph67%29.74 "Hg4 mi
1:00 PM91 °FScattered clouds.9 mph71%29.74 "Hg4 mi
11:30 AM91 °FScattered clouds.7 mph67%29.77 "Hg4 mi
11:00 AM91 °FScattered clouds.7 mph67%29.80 "Hg4 mi
10:30 AM90 °FScattered clouds.7 mph71%29.80 "Hg3 mi
9:30 AM90 °FHaze.6 mph71%29.80 "Hg3 mi
9:00 AM88 °FHaze.5 mph75%29.80 "Hg3 mi
Weather by CustomWeather, © 2016

See weather overviewHow to use our weather pages